Regional Weather Roundup
Issued by NWS Bismarck, ND

Home | Current Version | Previous Version | Text Only | Print | Product List | Glossary On
Versions: 1 2 3 4 5 6 7 8 9 10 11 12 13 14 15 16 17 18 19 20 21 22 23 24 25 26 27 28 29 30 31 32 33 34 35 36 37 38 39 40 41 42 43 44 45 46 47 48 49 50
000
ASUS43 KBIS 011402
RWRBIS

NWR BROADCAST TEXT
NATIONAL WEATHER SERVICE BISMARCK ND
900 AM CDT WED JUL 01 2015

NOTE: "FAIR" INDICATES FEW OR NO CLOUDS BELOW 12,000 FEET WITH NO
SIGNIFICANT WEATHER AND/OR OBSTRUCTIONS TO VISIBILITY.


CITY           SKY/WX    TMP DP  RH WIND       PRES   REMARKS
WILLISTON      CLOUDY    65  59  81 N7        29.98S HAZE
MINOT          FOG       63  62  97 NW3       29.95S VSB 1/4
MINOT AFB      NOT AVBL
BISMARCK       CLOUDY    67  64  90 E6        29.95S FOG
DICKINSON      CLOUDY    62  60  93 NE7       29.97R FOG
GARRISON         N/A     64  62  93 CALM      29.97R
HETTINGER ARPT CLOUDY    62  61  96 NW5       29.97R FOG
JAMESTOWN      CLOUDY    66  61  84 SE7       29.95R
HAZEN          PTSUNNY   64  63  94 NE3       29.97S FOG
OAKES            N/A     64  64 100 E8        29.94S
STANLEY        CLOUDY    63  63 100 NE5       29.99S FOG
$$

CITY           SKY/WX    TMP DP  RH WIND       PRES   REMARKS
GRAND FORKS    SUNNY     65  58  78 CALM      29.94S
GRAND FORKS AF NOT AVBL
DEVILS LAKE    SUNNY     66  57  72 S6        29.96R
FARGO          MOSUNNY   69  62  78 S9        29.95S
CAVALIER       FAIR      66  59  77 CALM      29.95S
GRAFTON        FAIR      66  57  72 CALM      29.96R
LANGDON        FAIR      66  61  82 S3        29.98S
$$

CITY           SKY/WX    TMP DP  RH WIND       PRES   REMARKS
ABERDEEN       CLOUDY    67  63  87 E9        29.93R FOG
MOBRIDGE       CLOUDY    69  67  93 E9        29.89S FOG
BUFFALO          N/A     69  59  70 NW18      29.90S
RAPID CITY     SUNNY     77  61  57 NW9       29.96R
GLASGOW        SUNNY     66  59  78 E3        29.99R HAZE
SIDNEY         CLOUDY    64  61  88 N5        29.98R
WOLF POINT     CLOUDY    66  60  81 E8        29.99S HAZE
GLENDIVE       CLOUDY    64  61  88 N6        30.00R
MILES CITY     CLOUDY    70  58  65 NW9       29.99S HAZE
BAKER          CLOUDY    62  62 100 NW6       30.00R FOG
$$

CITY           SKY/WX    TMP DP  RH WIND       PRES   REMARKS
BILLINGS       MOSUNNY   69  53  56 SW5       30.06F
GREAT FALLS    SUNNY     67  53  61 SW9       30.05F
ESTEVAN        FOG       61  61 100 VRB2      29.98R VSB 1
$$




USA.gov is the U.S. government's official web portal to all federal, state and local government web resources and services.